This is the latest recevied weather packets stored in our database for station/object KW4UJ. If no packets are shown the sender has not sent any weather packets the latest 10 day(s).
| Time | Temp. | Humidity | Pressure | Rain* | Wind** | Luminosity | Snow |
|---|---|---|---|---|---|---|---|
| 1788525025 | 21.67° C | 99% | 1015 hPa | 0 mm | - | 40 W/m² | - |
| 1788524725 | 22.22° C | 99% | 1014.9 hPa | 0 mm | - | 38 W/m² | - |
| 1788524420 | 22.22° C | 99% | 1014.7 hPa | 0 mm | - | 39 W/m² | - |
| 1788524115 | 22.78° C | 99% | 1014.8 hPa | 0 mm | - | 39 W/m² | - |
| 1788523811 | 22.22° C | 99% | 1014.9 hPa | 0 mm | - | 37 W/m² | - |
| 1788523507 | 22.22° C | 99% | 1014.7 hPa | 0 mm | - | 37 W/m² | - |
| 1788523202 | 22.22° C | 99% | 1014.9 hPa | 0 mm | - | 34 W/m² | - |
| 1788522897 | 21.67° C | 99% | 1015 hPa | 0 mm | - | 34 W/m² | - |
| 1788522596 | 21.67° C | 99% | 1014.9 hPa | 0 mm | - | 32 W/m² | - |
| 1788522292 | 21.67° C | 99% | 1014.9 hPa | 0 mm | - | 31 W/m² | - |
| 1788521987 | 21.67° C | 99% | 1014.8 hPa | 0 mm | - | 26 W/m² | - |
| 1788521687 | 21.67° C | 99% | 1014.6 hPa | 1.78 mm | - | 27 W/m² | - |
| 1788521385 | 21.67° C | 99% | 1014.6 hPa | 1.78 mm | - | 26 W/m² | - |
| 1788521082 | 21.11° C | 99% | 1014.7 hPa | 0 mm | - | 25 W/m² | - |
| 1788520777 | 21.11° C | 99% | 1014.8 hPa | 0 mm | - | 22 W/m² | - |
| 1788520473 | 21.11° C | 99% | 1014.9 hPa | 0 mm | - | 20 W/m² | - |
| 1788520169 | 21.11° C | 99% | 1014.7 hPa | 0 mm | - | 17 W/m² | - |
| 1788519867 | 21.11° C | 99% | 1014.7 hPa | 0 mm | - | 14 W/m² | - |
| 1788519563 | 21.11° C | 99% | 1014.7 hPa | 0 mm | - | 11 W/m² | - |
| 1788519257 | 21.11° C | 99% | 1014.5 hPa | 0 mm | - | 8 W/m² | - |
| 1788518953 | 21.11° C | 99% | 1014.4 hPa | 0 mm | - | 5 W/m² | - |
| 1788518647 | 21.11° C | 99% | 1014.8 hPa | 0 mm | - | 3 W/m² | - |
| 1788518344 | 21.11° C | 99% | 1014.7 hPa | 0 mm | - | 2 W/m² | - |
| 1788518044 | 21.11° C | 99% | 1014.6 hPa | 0 mm | - | 1 W/m² | - |
| 1788517741 | 21.11° C | 99% | 1014.5 hPa | 0 mm | - | 0 W/m² | - |
* Rain latest hour (hover to see other rain measurements)
** Current wind speed in m/s (hover to see current wind gust speed)